Year,Month,Day,Hour,Minute,Value (Times are PST for temperature in C)
2016,12,17,00,00,-6.70
2016,12,17,00,01,-6.70
2016,12,17,00,02,-6.60
2016,12,17,00,03,-6.60
2016,12,17,00,04,-6.60
2016,12,17,00,05,-6.60
2016,12,17,00,06,-6.60
2016,12,17,00,07,-6.60
2016,12,17,00,08,-6.70
2016,12,17,00,09,-6.70
2016,12,17,00,10,-6.70
2016,12,17,00,11,-6.70
2016,12,17,00,12,-6.70
2016,12,17,00,13,-6.70
2016,12,17,00,14,-6.70
2016,12,17,00,15,-6.70
2016,12,17,00,16,-6.70
2016,12,17,00,17,-6.70
2016,12,17,00,18,-6.70
2016,12,17,00,19,-6.70
2016,12,17,00,20,-6.70
2016,12,17,00,21,-6.70
2016,12,17,00,22,-6.70
2016,12,17,00,23,-6.70
2016,12,17,00,24,-6.70
2016,12,17,00,25,-6.70
2016,12,17,00,26,-6.70
2016,12,17,00,27,-6.70
2016,12,17,00,28,-6.70
2016,12,17,00,29,-6.70
2016,12,17,00,30,-6.70
2016,12,17,00,31,-6.70
2016,12,17,00,32,-6.70
2016,12,17,00,33,-6.70
2016,12,17,00,34,-6.70
2016,12,17,00,35,-6.70
2016,12,17,00,36,-6.70
2016,12,17,00,37,-6.60
2016,12,17,00,38,-6.60
2016,12,17,00,39,-6.60
2016,12,17,00,40,-6.60
2016,12,17,00,41,-6.60
2016,12,17,00,42,-6.60
2016,12,17,00,43,-6.60
2016,12,17,00,44,-6.60
2016,12,17,00,45,-6.60
2016,12,17,00,46,-6.50
2016,12,17,00,47,-6.50
2016,12,17,00,48,-6.50
2016,12,17,00,49,-6.50
2016,12,17,00,50,-6.40
2016,12,17,00,51,-6.40
2016,12,17,00,52,-6.40
2016,12,17,00,53,-6.40
2016,12,17,00,54,-6.40
2016,12,17,00,55,-6.40
2016,12,17,00,56,-6.30
2016,12,17,00,57,-6.30
2016,12,17,00,58,-6.30
2016,12,17,00,59,-6.30
2016,12,17,01,00,-6.30
2016,12,17,01,01,-6.30
2016,12,17,01,02,-6.30
2016,12,17,01,03,-6.30
2016,12,17,01,04,-6.30
2016,12,17,01,05,-6.20
2016,12,17,01,06,-6.20
2016,12,17,01,07,-6.20
2016,12,17,01,08,-6.20
2016,12,17,01,09,-6.20
2016,12,17,01,10,-6.20
2016,12,17,01,11,-6.20
2016,12,17,01,12,-6.20
2016,12,17,01,13,-6.20
2016,12,17,01,14,-6.20
2016,12,17,01,15,-6.20
2016,12,17,01,16,-6.10
2016,12,17,01,17,-6.10
2016,12,17,01,18,-6.10
2016,12,17,01,19,-6.10
2016,12,17,01,20,-6.10
2016,12,17,01,21,-6.10
2016,12,17,01,22,-6.10
2016,12,17,01,23,-6.10
2016,12,17,01,24,-6.10
2016,12,17,01,25,-6.00
2016,12,17,01,26,-6.00
2016,12,17,01,27,-6.00
2016,12,17,01,28,-6.00
2016,12,17,01,29,-6.00
2016,12,17,01,30,-6.00
2016,12,17,01,31,-6.00
2016,12,17,01,32,-6.00
2016,12,17,01,33,-6.00
2016,12,17,01,34,-6.00
2016,12,17,01,35,-6.00
2016,12,17,01,36,-6.00
2016,12,17,01,37,-6.00
2016,12,17,01,38,-6.00
2016,12,17,01,39,-6.00
2016,12,17,01,40,-6.00
2016,12,17,01,41,-6.00
2016,12,17,01,42,-6.00
2016,12,17,01,43,-6.00
2016,12,17,01,44,-6.00
2016,12,17,01,45,-6.00
2016,12,17,01,46,-6.00
2016,12,17,01,47,-6.00
2016,12,17,01,48,-6.00
2016,12,17,01,49,-6.00
2016,12,17,01,50,-6.00
2016,12,17,01,51,-6.00
2016,12,17,01,52,-6.10
2016,12,17,01,53,-6.10
2016,12,17,01,54,-6.10
2016,12,17,01,55,-6.10
2016,12,17,01,56,-6.10
2016,12,17,01,57,-6.10
2016,12,17,01,58,-6.10
2016,12,17,01,59,-6.10
2016,12,17,02,00,-6.10
2016,12,17,02,01,-6.10
2016,12,17,02,02,-6.10
2016,12,17,02,03,-6.20
2016,12,17,02,04,-6.20
2016,12,17,02,05,-6.20
2016,12,17,02,06,-6.20
2016,12,17,02,07,-6.20
2016,12,17,02,08,-6.20
2016,12,17,02,09,-6.20
2016,12,17,02,10,-6.20
2016,12,17,02,11,-6.20
2016,12,17,02,12,-6.20
2016,12,17,02,13,-6.30
2016,12,17,02,14,-6.30
2016,12,17,02,15,-6.30
2016,12,17,02,16,-6.30
2016,12,17,02,17,-6.30
2016,12,17,02,18,-6.30
2016,12,17,02,19,-6.30
2016,12,17,02,20,-6.30
2016,12,17,02,21,-6.30
2016,12,17,02,22,-6.30
2016,12,17,02,23,-6.30
2016,12,17,02,24,-6.30
2016,12,17,02,25,-6.30
2016,12,17,02,26,-6.30
2016,12,17,02,27,-6.30
2016,12,17,02,28,-6.30
2016,12,17,02,29,-6.30
2016,12,17,02,30,-6.30
2016,12,17,02,31,-6.30
2016,12,17,02,32,-6.40
2016,12,17,02,33,-6.40
2016,12,17,02,34,-6.40
2016,12,17,02,35,-6.40
2016,12,17,02,36,-6.40
2016,12,17,02,37,-6.40
2016,12,17,02,38,-6.40
2016,12,17,02,39,-6.40
2016,12,17,02,40,-6.40
2016,12,17,02,41,-6.40
2016,12,17,02,42,-6.40
2016,12,17,02,43,-6.40
2016,12,17,02,44,-6.40
2016,12,17,02,45,-6.40
2016,12,17,02,46,-6.40
2016,12,17,02,47,-6.40
2016,12,17,02,48,-6.40
2016,12,17,02,49,-6.40
2016,12,17,02,50,-6.40
2016,12,17,02,51,-6.40
2016,12,17,02,52,-6.40
2016,12,17,02,53,-6.40
2016,12,17,02,54,-6.40
2016,12,17,02,55,-6.40
2016,12,17,02,56,-6.40
2016,12,17,02,57,-6.40
2016,12,17,02,58,-6.40
2016,12,17,02,59,-6.40
2016,12,17,03,00,-6.40
2016,12,17,03,01,-6.40
2016,12,17,03,02,-6.40
2016,12,17,03,03,-6.40
2016,12,17,03,04,-6.40
2016,12,17,03,05,-6.40
2016,12,17,03,06,-6.40
2016,12,17,03,07,-6.40
2016,12,17,03,08,-6.40
2016,12,17,03,09,-6.40
2016,12,17,03,10,-6.40
2016,12,17,03,11,-6.40
2016,12,17,03,12,-6.50
2016,12,17,03,13,-6.50
2016,12,17,03,14,-6.50
2016,12,17,03,15,-6.50
2016,12,17,03,16,-6.50
2016,12,17,03,17,-6.50
2016,12,17,03,18,-6.50
2016,12,17,03,19,-6.50
2016,12,17,03,20,-6.50
2016,12,17,03,21,-6.40
2016,12,17,03,22,-6.40
2016,12,17,03,23,-6.50
2016,12,17,03,24,-6.50
2016,12,17,03,25,-6.50
2016,12,17,03,26,-6.50
2016,12,17,03,27,-6.50
2016,12,17,03,28,-6.50
2016,12,17,03,29,-6.50
2016,12,17,03,30,-6.50
2016,12,17,03,31,-6.50
2016,12,17,03,32,-6.50
2016,12,17,03,33,-6.50
2016,12,17,03,34,-6.50
2016,12,17,03,35,-6.50
2016,12,17,03,36,-6.50
2016,12,17,03,37,-6.50
2016,12,17,03,38,-6.50
2016,12,17,03,39,-6.50
2016,12,17,03,40,-6.50
2016,12,17,03,41,-6.50
2016,12,17,03,42,-6.60
2016,12,17,03,43,-6.60
2016,12,17,03,44,-6.60
2016,12,17,03,45,-6.60
2016,12,17,03,46,-6.60
2016,12,17,03,47,-6.60
2016,12,17,03,48,-6.60
2016,12,17,03,49,-6.60
2016,12,17,03,50,-6.60
2016,12,17,03,51,-6.60
2016,12,17,03,52,-6.60
2016,12,17,03,53,-6.60
2016,12,17,03,54,-6.60
2016,12,17,03,55,-6.60
2016,12,17,03,56,-6.60
2016,12,17,03,57,-6.60
2016,12,17,03,58,-6.60
2016,12,17,03,59,-6.60
2016,12,17,04,00,-6.60
2016,12,17,04,01,-6.60
2016,12,17,04,02,-6.60
2016,12,17,04,03,-6.60
2016,12,17,04,04,-6.60
2016,12,17,04,05,-6.60
2016,12,17,04,06,-6.60
2016,12,17,04,07,-6.50
2016,12,17,04,08,-6.50
2016,12,17,04,09,-6.50
2016,12,17,04,10,-6.50
2016,12,17,04,11,-6.50
2016,12,17,04,12,-6.50
2016,12,17,04,13,-6.50
2016,12,17,04,14,-6.50
2016,12,17,04,15,-6.50
2016,12,17,04,16,-6.40
2016,12,17,04,17,-6.40
2016,12,17,04,18,-6.40
2016,12,17,04,19,-6.40
2016,12,17,04,20,-6.40
2016,12,17,04,21,-6.40
2016,12,17,04,22,-6.40
2016,12,17,04,23,-6.30
2016,12,17,04,24,-6.30
2016,12,17,04,25,-6.30
2016,12,17,04,26,-6.30
2016,12,17,04,27,-6.30
2016,12,17,04,28,-6.30
2016,12,17,04,29,-6.20
2016,12,17,04,30,-6.20
2016,12,17,04,31,-6.20
2016,12,17,04,32,-6.20
2016,12,17,04,33,-6.20
2016,12,17,04,34,-6.20
2016,12,17,04,35,-6.10
2016,12,17,04,36,-6.10
2016,12,17,04,37,-6.10
2016,12,17,04,38,-6.10
2016,12,17,04,39,-6.10
2016,12,17,04,40,-6.00
2016,12,17,04,41,-6.00
2016,12,17,04,42,-6.00
2016,12,17,04,43,-5.90
2016,12,17,04,44,-5.90
2016,12,17,04,45,-5.90
2016,12,17,04,46,-5.90
2016,12,17,04,47,-5.90
2016,12,17,04,48,-5.80
2016,12,17,04,49,-5.80
2016,12,17,04,50,-5.80
2016,12,17,04,51,-5.80
2016,12,17,04,52,-5.80
2016,12,17,04,53,-5.70
2016,12,17,04,54,-5.70
2016,12,17,04,55,-5.70
2016,12,17,04,56,-5.70
2016,12,17,04,57,-5.70
2016,12,17,04,58,-5.60
2016,12,17,04,59,-5.60
2016,12,17,05,00,-5.60
2016,12,17,05,01,-5.60
2016,12,17,05,02,-5.60
2016,12,17,05,03,-5.60
2016,12,17,05,04,-5.60
2016,12,17,05,05,-5.50
2016,12,17,05,06,-5.50
2016,12,17,05,07,-5.50
2016,12,17,05,08,-5.50
2016,12,17,05,09,-5.50
2016,12,17,05,10,-5.40
2016,12,17,05,11,-5.40
2016,12,17,05,12,-5.40
2016,12,17,05,13,-5.40
2016,12,17,05,14,-5.40
2016,12,17,05,15,-5.40
2016,12,17,05,16,-5.40
2016,12,17,05,17,-5.30
2016,12,17,05,18,-5.30
2016,12,17,05,19,-5.30
2016,12,17,05,20,-5.30
2016,12,17,05,21,-5.30
2016,12,17,05,22,-5.30
2016,12,17,05,23,-5.20
2016,12,17,05,24,-5.20
2016,12,17,05,25,-5.20
2016,12,17,05,26,-5.20
2016,12,17,05,27,-5.20
2016,12,17,05,28,-5.20
2016,12,17,05,29,-5.20
2016,12,17,05,30,-5.10
2016,12,17,05,31,-5.10
2016,12,17,05,32,-5.10
2016,12,17,05,33,-5.10
2016,12,17,05,34,-5.10
2016,12,17,05,35,-5.00
2016,12,17,05,36,-5.00
2016,12,17,05,37,-5.00
2016,12,17,05,38,-5.00
2016,12,17,05,39,-5.00
2016,12,17,05,40,-5.00
2016,12,17,05,41,-4.90
2016,12,17,05,42,-4.90
2016,12,17,05,43,-4.90
2016,12,17,05,44,-4.90
2016,12,17,05,45,-4.90
2016,12,17,05,46,-4.90
2016,12,17,05,47,-4.80
2016,12,17,05,48,-4.80
2016,12,17,05,49,-4.80
2016,12,17,05,50,-4.80
2016,12,17,05,51,-4.80
2016,12,17,05,52,-4.80
2016,12,17,05,53,-4.70
2016,12,17,05,54,-4.70
2016,12,17,05,55,-4.70
2016,12,17,05,56,-4.70
2016,12,17,05,57,-4.70
2016,12,17,05,58,-4.70
2016,12,17,05,59,-4.70
2016,12,17,06,00,-4.70
2016,12,17,06,01,-4.70
2016,12,17,06,02,-4.70
2016,12,17,06,03,-4.70
2016,12,17,06,04,-4.70
2016,12,17,06,05,-4.70
2016,12,17,06,06,-4.70
2016,12,17,06,07,-4.70
2016,12,17,06,08,-4.70
2016,12,17,06,09,-4.60
2016,12,17,06,10,-4.60
2016,12,17,06,11,-4.60
2016,12,17,06,12,-4.60
2016,12,17,06,13,-4.60
2016,12,17,06,14,-4.60
2016,12,17,06,15,-4.60
2016,12,17,06,16,-4.60
2016,12,17,06,17,-4.60
2016,12,17,06,18,-4.60
2016,12,17,06,19,-4.50
2016,12,17,06,20,-4.50
2016,12,17,06,21,-4.50
2016,12,17,06,22,-4.40
2016,12,17,06,23,-4.40
2016,12,17,06,24,-4.40
2016,12,17,06,25,-4.40
2016,12,17,06,26,-4.40
2016,12,17,06,27,-4.40
2016,12,17,06,28,-4.30
2016,12,17,06,29,-4.30
2016,12,17,06,30,-4.30
2016,12,17,06,31,-4.30
2016,12,17,06,32,-4.30
2016,12,17,06,33,-4.30
2016,12,17,06,34,-4.30
2016,12,17,06,35,-4.30
2016,12,17,06,36,-4.30
2016,12,17,06,37,-4.30
2016,12,17,06,38,-4.30
2016,12,17,06,39,-4.30
2016,12,17,06,40,-4.30
2016,12,17,06,41,-4.30
2016,12,17,06,42,-4.30
2016,12,17,06,43,-4.30
2016,12,17,06,44,-4.20
2016,12,17,06,45,-4.20
2016,12,17,06,46,-4.20
2016,12,17,06,47,-4.20
2016,12,17,06,48,-4.20
2016,12,17,06,49,-4.20
2016,12,17,06,50,-4.20
2016,12,17,06,51,-4.20
2016,12,17,06,52,-4.20
2016,12,17,06,53,-4.20
2016,12,17,06,54,-4.20
2016,12,17,06,55,-4.20
2016,12,17,06,56,-4.20
2016,12,17,06,57,-4.20
2016,12,17,06,58,-4.20
2016,12,17,06,59,-4.20
2016,12,17,07,00,-4.20
2016,12,17,07,01,-4.10
2016,12,17,07,02,-4.10
2016,12,17,07,03,-4.10
2016,12,17,07,04,-4.10
2016,12,17,07,05,-4.10
2016,12,17,07,06,-4.10
2016,12,17,07,07,-4.10
2016,12,17,07,08,-4.10
2016,12,17,07,09,-4.10
2016,12,17,07,10,-4.10
2016,12,17,07,11,-4.10
2016,12,17,07,12,-4.10
2016,12,17,07,13,-4.10
2016,12,17,07,14,-4.10
2016,12,17,07,15,-4.10
2016,12,17,07,16,-4.10
2016,12,17,07,17,-4.10
2016,12,17,07,18,-4.10
2016,12,17,07,19,-4.10
2016,12,17,07,20,-4.10
2016,12,17,07,21,-4.10
2016,12,17,07,22,-4.10
2016,12,17,07,23,-4.10
2016,12,17,07,24,-4.10
2016,12,17,07,25,-4.10
